Date String (YYYY-MM-DD hh:mm:ss) UTC,Instrument flags,absolute air pressure of the measurement (hPa),sample flow rate (lpm),inlet stack bypass flow (lpm),air temperature of the measurement (°C),ambient temperature measured by the external sensor (°C),aerosol sample conditioner tube jacket temperature (°C),OPC LED temperature (°C),internal box temperature (°C),relative humidity of the measurement (%),span deviation,mass concentration of particles derived from Lorenz-Mie calculation of OPC scattering (μg/m³),mass concentration of particles derived from Lorenz-Mie calculation of OPC scattering (μg/m³),mass concentration of particles derived from Lorenz-Mie calculation of OPC scattering (μg/m³)
DateTimeUTC,F1_M11,P_M11,Q1_M11,Q2_M11,T1_M11,T2_M11,T3_M11,T4_M11,T5_M11,U1_M11,ZSPAN_M11,X0_M11,X2_M11,X1_M11
2023-07-24 17:00:00,SystemResetWarning,0835.7,5.00,000.00,028.7,026.9,000.0,037.0,030.3,27.6,0000.0,0011.51,0005.37,0004.83
2023-07-24 17:01:00,SystemResetWarning,0835.7,4.99,000.00,028.7,027.1,000.0,037.0,030.4,26.5,0000.0,0011.37,0005.35,0004.83
2023-07-24 17:02:00,SystemResetWarning,0835.6,4.99,000.00,028.7,026.1,000.0,036.9,030.2,22.9,0000.0,0010.74,0005.36,0004.83
2023-07-24 17:03:00,SystemResetWarning,0835.6,5.01,000.00,028.7,025.1,000.0,036.8,030.1,25.0,0000.0,0010.49,0005.30,0004.80
2023-07-24 17:04:00,SystemResetWarning,0835.7,5.01,000.00,028.6,025.3,000.0,036.8,030.0,23.4,0000.0,0010.42,0005.29,0004.78
2023-07-24 17:05:00,SystemResetWarning,0835.6,4.99,000.00,028.6,025.6,000.0,036.8,030.0,26.7,0000.0,0010.28,0005.25,0004.75
2023-07-24 17:06:00,SystemResetWarning,0835.6,4.99,000.00,028.6,026.1,000.0,036.9,030.1,27.3,0000.0,0010.33,0005.20,0004.70
2023-07-24 17:07:00,SystemResetWarning,0835.6,5.00,000.00,028.6,026.5,000.0,036.9,030.2,26.0,0000.0,0010.28,0005.14,0004.65
2023-07-24 17:08:00,SystemResetWarning,0835.6,5.00,000.00,028.7,026.9,000.0,037.0,030.4,26.0,0000.0,0010.12,0005.05,0004.59
2023-07-24 17:09:00,SystemResetWarning,0835.6,5.01,000.00,028.7,027.1,000.0,036.9,030.5,24.8,0000.0,0009.88,0004.99,0004.55
2023-07-24 17:10:00,SystemResetWarning,0835.6,4.99,000.00,028.7,026.1,000.0,036.9,030.3,22.7,0000.0,0009.51,0004.95,0004.52
2023-07-24 17:11:00,SystemResetWarning,0835.6,5.01,000.00,028.7,025.1,000.0,036.8,030.2,22.3,0000.0,0009.48,0004.96,0004.49
2023-07-24 17:12:00,SystemResetWarning,0835.6,5.01,000.00,028.6,025.3,000.0,036.8,030.1,22.3,0000.0,0009.06,0004.93,0004.46
2023-07-24 17:13:00,SystemResetWarning,0835.6,5.00,000.00,028.6,025.7,000.0,036.8,030.1,23.5,0000.0,0009.38,0004.92,0004.42
2023-07-24 17:14:00,SystemResetWarning,0835.6,4.99,000.00,028.6,026.2,000.0,036.9,030.2,23.4,0000.0,0009.46,0004.92,0004.40
2023-07-24 17:15:00,SystemResetWarning,0835.6,5.01,000.00,028.7,026.6,000.0,036.9,030.3,24.4,0000.0,0009.61,0004.90,0004.40
2023-07-24 17:16:00,SystemResetWarning,0835.8,4.99,000.00,028.7,027.0,000.0,037.0,030.4,25.7,0000.0,0009.53,0004.86,0004.38
2023-07-24 17:17:00,SystemResetWarning,0835.6,4.98,000.00,028.7,026.5,000.0,036.9,030.3,24.4,0000.0,0010.12,0004.82,0004.36
2023-07-24 17:18:00,SystemResetWarning,0835.6,5.00,000.00,028.7,025.2,000.0,036.8,030.1,25.5,0000.0,0010.07,0004.82,0004.35
2023-07-24 17:19:00,SystemResetWarning,0835.6,5.00,000.00,028.6,025.0,000.0,036.7,030.0,26.5,0000.0,0010.12,0004.84,0004.35
2023-07-24 17:20:00,SystemResetWarning,0835.6,5.01,000.00,028.6,025.3,000.0,036.8,029.9,26.7,0000.0,0010.81,0004.84,0004.35
2023-07-24 17:21:00,SystemResetWarning,0835.6,5.00,000.00,028.5,025.7,000.0,036.8,030.0,24.4,0000.0,0010.78,0004.84,0004.34
2023-07-24 17:22:00,SystemResetWarning,0835.6,5.00,000.00,028.6,026.2,000.0,036.9,030.1,24.9,0000.0,0010.68,0004.79,0004.32
2023-07-24 17:23:00,SystemResetWarning,0835.6,4.99,000.00,028.6,026.6,000.0,036.9,030.2,25.2,0000.0,0010.99,0004.76,0004.29
2023-07-24 17:24:00,SystemResetWarning,0835.6,5.00,000.00,028.6,026.9,000.0,036.9,030.3,25.9,0000.0,0010.87,0004.68,0004.26
2023-07-24 17:25:00,SystemResetWarning,0835.6,4.99,000.00,028.7,026.5,000.0,036.9,030.3,26.4,0000.0,0010.73,0004.63,0004.22
2023-07-24 17:26:00,SystemResetWarning,0835.6,5.01,000.00,028.6,025.2,000.0,036.8,030.1,26.6,0000.0,0010.76,0004.59,0004.18
2023-07-24 17:27:00,SystemResetWarning,0835.6,5.01,000.00,028.6,024.9,000.0,036.7,030.0,27.0,0000.0,0010.90,0004.56,0004.15
2023-07-24 17:28:00,SystemResetWarning,0835.6,5.01,000.00,028.5,025.3,000.0,036.7,029.9,26.0,0000.0,0010.20,0004.57,0004.15
2023-07-24 17:29:00,SystemResetWarning,0835.6,5.00,000.00,028.5,025.7,000.0,036.8,029.9,26.1,0000.0,0010.13,0004.55,0004.15
2023-07-24 17:30:00,SystemResetWarning,0835.6,5.00,000.00,028.5,026.1,000.0,036.8,030.0,26.0,0000.0,0010.17,0004.54,0004.15
2023-07-24 17:31:00,SystemResetWarning,0835.6,5.01,000.00,028.5,026.6,000.0,036.8,030.1,27.5,0000.0,0009.18,0004.51,0004.14
2023-07-24 17:32:00,SystemResetWarning,0835.6,4.99,000.00,028.6,026.9,000.0,036.9,030.2,27.3,0000.0,0008.92,0004.47,0004.13
2023-07-24 17:33:00,SystemResetWarning,0835.6,4.98,000.00,028.6,026.5,000.0,036.8,030.2,27.8,0000.0,0008.71,0004.42,0004.12
2023-07-24 17:34:00,SystemResetWarning,0835.6,5.00,000.00,028.5,025.1,000.0,036.7,030.0,27.8,0000.0,0008.19,0004.43,0004.13
2023-07-24 17:35:00,SystemResetWarning,0835.6,5.00,000.00,028.5,024.9,000.0,036.6,029.9,28.5,0000.0,0008.00,0004.44,0004.14
2023-07-24 17:36:00,SystemResetWarning,0835.6,5.02,000.00,028.4,025.2,000.0,036.7,029.9,28.2,0000.0,0008.09,0004.46,0004.16
2023-07-24 17:37:00,SystemResetWarning,0835.6,5.00,000.00,028.4,025.7,000.0,036.7,029.9,27.6,0000.0,0007.81,0004.48,0004.18
2023-07-24 17:38:00,SystemResetWarning,0835.6,5.00,000.00,028.4,026.1,000.0,036.8,030.0,27.7,0000.0,0007.34,0004.49,0004.20
2023-07-24 17:39:00,SystemResetWarning,0835.6,5.00,000.00,028.5,026.5,000.0,036.8,030.1,26.9,0000.0,0007.25,0004.50,0004.22
2023-07-24 17:40:00,SystemResetWarning,0835.6,5.00,000.00,028.5,026.9,000.0,036.8,030.2,24.4,0000.0,0007.52,0004.55,0004.23
2023-07-24 17:41:00,SystemResetWarning,0835.6,4.99,000.00,028.6,027.0,000.0,036.8,030.3,24.3,0000.0,0007.73,0004.59,0004.25
2023-07-24 17:42:00,SystemResetWarning,0835.6,4.99,000.00,028.6,025.9,000.0,036.7,030.2,25.2,0000.0,0008.41,0004.62,0004.27
2023-07-24 17:43:00,SystemResetWarning,0835.6,5.01,000.00,028.5,024.9,000.0,036.7,030.0,26.1,0000.0,0008.73,0004.65,0004.29
2023-07-24 17:44:00,SystemResetWarning,0835.5,5.02,000.00,028.5,025.1,000.0,036.6,029.9,25.9,0000.0,0009.30,0004.69,0004.31
2023-07-24 17:45:00,SystemResetWarning,0835.5,5.00,000.00,028.4,025.4,000.0,036.7,029.8,25.6,0000.0,0009.71,0004.67,0004.30
2023-07-24 17:46:00,SystemResetWarning,0835.5,5.00,000.00,028.4,025.9,000.0,036.7,029.9,25.0,0000.0,0010.05,0004.74,0004.30
2023-07-24 17:47:00,SystemResetWarning,0835.5,5.00,000.00,028.4,026.3,000.0,036.8,030.0,27.9,0000.0,0010.12,0004.76,0004.31
2023-07-24 17:48:00,SystemResetWarning,0835.6,5.01,000.00,028.5,026.7,000.0,036.8,030.1,28.7,0000.0,0010.15,0004.77,0004.32
2023-07-24 17:49:00,SystemResetWarning,0835.6,4.99,000.00,028.5,027.0,000.0,036.8,030.2,29.3,0000.0,0010.23,0004.79,0004.34
2023-07-24 17:50:00,SystemResetWarning,0835.5,4.98,000.00,028.6,026.6,000.0,036.8,030.2,30.1,0000.0,0010.31,0004.81,0004.35
2023-07-24 17:51:00,SystemResetWarning,0835.5,5.01,000.00,028.5,025.3,000.0,036.7,030.0,30.8,0000.0,0010.19,0004.82,0004.37
2023-07-24 17:52:00,SystemResetWarning,0835.5,5.01,000.00,028.5,024.9,000.0,036.6,029.9,30.1,0000.0,0009.94,0004.79,0004.37
2023-07-24 17:53:00,SystemResetWarning,0835.5,5.01,000.00,028.4,025.3,000.0,036.6,029.8,32.4,0000.0,0009.28,0004.78,0004.36
2023-07-24 17:54:00,SystemResetWarning,0835.5,4.99,000.00,028.4,025.7,000.0,036.7,029.9,32.1,0000.0,0009.10,0004.79,0004.36
2023-07-24 17:55:00,SystemResetWarning,0835.5,5.00,000.00,028.4,026.1,000.0,036.7,030.0,31.9,0000.0,0009.33,0004.80,0004.34
2023-07-24 17:56:00,SystemResetWarning,0835.5,5.01,000.00,028.4,026.5,000.0,036.7,030.1,31.4,0000.0,0008.92,0004.84,0004.34
2023-07-24 17:57:00,SystemResetWarning,0835.5,5.00,000.00,028.5,026.9,000.0,036.8,030.2,32.0,0000.0,0008.43,0004.80,0004.35
2023-07-24 17:58:00,SystemResetWarning,0835.5,4.98,000.00,028.5,026.5,000.0,036.7,030.1,31.3,0000.0,0008.29,0004.78,0004.37
2023-07-24 17:59:00,SystemResetWarning,0835.4,5.00,000.00,028.5,025.2,000.0,036.7,029.9,32.3,0000.0,0008.33,0004.81,0004.38
